Hobart, OK

1:26 AM CST on January 21, 2017 (GMT -0600)
Hobart

Weather History for KHBR - June, 2013

Change the Weather History Date:

Friday, June 28, 2013

  Actual Average Record
Temperature  
Mean Temperature 86 °F -  
Max Temperature 102 °F 90 °F 107 °F (2012)
Min Temperature 71 °F 67 °F 62 °F (2015)
Cooling Degree Days 22    
Growing Degree Days 36 (Base 50)    
Moisture  
Dew Point 57 °F    
Average Humidity 39    
Maximum Humidity 68    
Minimum Humidity 17    
Precipitation  
Precipitation 0.00 in - - ()
Sea Level Pressure  
Sea Level Pressure 29.92 in    
Wind  
Wind Speed 10 mph (ENE)    
Max Wind Speed 18 mph    
Max Gust Speed 31 mph    
Visibility 10 miles    
Events      
Averages and records for this station are not official NWS values.
T = Trace of Precipitation, MM = Missing Value Source: NWS Daily Summary

Daily Weather History Graph

Daily Weather History Graph

Search for Another Location

Airport or City:

Trip Planner

Search our weather history database for the weather conditions in past years. The results will help you decide how hot, cold, wet, or windy it might be!

Date:

Astronomy

Jun. 28, 2013 Rise Set
Actual Time 6:24 AM CDT 8:54 PM CDT
Civil Twilight 5:55 AM CDT 9:23 PM CDT
Nautical Twilight 5:18 AM CDT 10:00 PM CDT
Astronomical Twilight 4:38 AM CDT 10:40 PM CDT
Moon 12:05 AM CDT (6/28) 12:19 PM CDT (6/28)
Length of Visible Light 15h 28m
Length of Day
14h 29m
Waning Gibbous, 66% of the Moon is Illuminated
Jun 28
Waning Gibbous
Jun 29
Last Quarter
Jul 8
New
Jul 15
First Quarter
Jul 22
Full

Hourly Weather History & Observations

Time (CDT) Temp. Heat Index Dew Point Humidity Pressure Visibility Wind Dir Wind Speed Gust Speed Precip Events Conditions
12:53 AM 79.0 °F - 62.1 °F 56% 29.88 in 10.0 mi SE 16.1 mph - N/A   Clear
1:53 AM 78.1 °F - 60.1 °F 54% 29.87 in 10.0 mi WSW 9.2 mph - N/A   Clear
2:53 AM 79.0 °F - 60.1 °F 52% 29.91 in 10.0 mi Calm Calm - N/A   Clear
3:53 AM 75.0 °F - 61.0 °F 62% 29.91 in 10.0 mi NNW 6.9 mph - N/A   Clear
4:53 AM 73.0 °F - 61.0 °F 66% 29.92 in 10.0 mi NW 5.8 mph - N/A   Clear
5:53 AM 72.0 °F - 61.0 °F 68% 29.97 in 10.0 mi NE 6.9 mph - N/A   Clear
6:53 AM 71.1 °F - 60.1 °F 68% 29.98 in 10.0 mi NE 4.6 mph - N/A   Clear
7:53 AM 79.0 °F - 61.0 °F 54% 29.99 in 10.0 mi NE 4.6 mph - N/A   Clear
8:53 AM 84.0 °F 84.0 °F 60.1 °F 44% 29.98 in 10.0 mi NE 8.1 mph - N/A   Clear
9:53 AM 90.0 °F 88.8 °F 57.9 °F 34% 29.97 in 10.0 mi NE 10.4 mph - N/A   Clear
10:53 AM 95.0 °F 93.7 °F 57.0 °F 28% 29.96 in 10.0 mi NE 8.1 mph - N/A   Clear
11:53 AM 97.0 °F 96.9 °F 60.1 °F 29% 29.96 in 10.0 mi NE 11.5 mph 20.7 mph N/A   Clear
12:53 PM 100.0 °F 99.7 °F 57.9 °F 25% 29.95 in 10.0 mi NNE 16.1 mph 25.3 mph N/A   Clear
1:53 PM 102.0 °F 100.1 °F 54.0 °F 20% 29.94 in 10.0 mi NE 18.4 mph 26.5 mph N/A   Clear
2:53 PM 102.0 °F 100.1 °F 54.0 °F 20% 29.92 in 10.0 mi NE 17.3 mph 28.8 mph N/A   Clear
3:53 PM 102.0 °F 99.7 °F 53.1 °F 19% 29.91 in 10.0 mi ENE 18.4 mph 31.1 mph N/A   Clear
4:53 PM 100.9 °F - 52.0 °F 19% 29.90 in 10.0 mi ENE 15.0 mph 21.9 mph N/A   Clear
5:53 PM 100.9 °F - 48.9 °F 17% 29.88 in 10.0 mi ENE 10.4 mph 19.6 mph N/A   Clear
6:53 PM 99.0 °F - 48.9 °F 18% 29.87 in 10.0 mi ENE 9.2 mph - N/A   Clear
7:53 PM 96.1 °F - 51.1 °F 22% 29.87 in 10.0 mi East 9.2 mph - N/A   Clear
8:53 PM 89.1 °F 86.9 °F 54.0 °F 30% 29.88 in 10.0 mi ESE 8.1 mph - N/A   Clear
9:53 PM 82.9 °F 81.9 °F 54.0 °F 37% 29.88 in 10.0 mi SE 5.8 mph - N/A   Clear
10:53 PM 80.1 °F 80.1 °F 55.0 °F 42% 29.89 in 10.0 mi South 8.1 mph - N/A   Clear
11:53 PM 75.9 °F - 55.9 °F 50% 29.88 in 10.0 mi SW 6.9 mph - N/A   Clear